Location: St. Louis
(38.6270°N, 90.1994°W)
Time: 07:52:23
(UTC-06:00)

Transit 4A - Pass Details

Date: 05 December 2021
Orbit: 864 x 981 km, 66.8° (Epoch: 19 January)

Event Time Altitude Azimuth Distance (km) Brightness Sun altitude
Rises 04:15:57 0° 330° (NNW) 3,626 - -32.0°
Reaches altitude 10° 04:18:29 10° 329° (NNW) 2,692 - -31.5°
Maximum altitude 04:24:47 78° 244° (WSW) 997 - -30.3°
Exits shadow 04:25:45 64° 182° (S) 1,071 8.1 -30.1°
Drops below altitude 10° 04:31:10 10° 159° (SSE) 2,721 10.6 -29.1°
Sets 04:33:44 0° 158° (SSE) 3,667 11.4 -28.6°
